"Pseudo-MPEC" for P20JFy9

Created 2018 Oct 13 14:18:09 UT using Find_Orb

Click here for an explanation of pseudo-MPECs

 
 Astrometry: 
     P20JFy9  C2018 10 10dbAstrometryDZMi.'c(Qm.m'+ZT+eicch#$TVRqtn;TA^bIdL+oF52
     P20JFy9  C2018 10 10?mcxwU^xG%f%^t[jk0_`dZDM]cSh2L5uM4M\riZsI!x-O4QAD6'.F52
     P20JFy9  C2018 10 10q5.iBwUo2+vXXr!lF$GDewX=rVSSe$YT3wdXFPcBQuT#v#!HHfyZF52
     P20JFy9  C2018 10 10)q77$Vo8d\:;FLaQiredacted;)(]_o8cJ:ej9ytdjeh4equ=!hHF52
     P20JFy9 KC2018 10 12EK*ccj2!-\;rMTK!rf:A'qpbiK*kpUv4@FsM)4y0BJ1:fw/]Q*#FH21
     P20JFy9 KC2018 10 12%07v@gd8-d2ZGF3WC8h7$?F;KPZN*`N0seeK?`k-J):4;O6bm_\PH21
     P20JFy9 KC2018 10 12Y!wtLM.T2o\Bt(ec,H#t,04I$M#:#6;1B(?P:h36bir'R$*/xHpcH21
     P20JFy9 KC2018 10 13\?AcB[fYPADL#=#q`j-3%*?]4(56xxL=?5:TUM+vKWyB4J($W+76L01
     P20JFy9 KC2018 10 13i0sW9cm7a?/[.#5cPt:URmwfEOe6@.Gme`V2wr+,S9/BV9=NEOCPL01

Station data:
(F52) Pan-STARRS 2, Haleakala  (N20.707384 W156.255910)  US/Hawaii.
(H21) Astronomical Research Observatory, Westfield  (N39.483057 W87.968270)
   US/Illinois. 0.76-m f/3.0 astrograph + CCD.
(L01) Višnjan Observatory, Tičan  (N45.290900 E13.749300)  Croatia.  Observer
   K. Korlević. 1.0-m f/2.9 reflector + CCD.

Orbital elements:  P20JFy9
   Perihelion 2018 Sep 24.042149 +/- 3.77 TT =  1:00:41 (JD 2458385.542149)
Epoch 2018 Oct 13.0 TT = JDT 2458404.5   Earth MOID: 0.3586   Ma: 0.0111
M   5.61501 +/- 0.8                 (J2000 ecliptic)          AutoNEOCP
n   0.29618418 +/- 0.0182           Peri.  224.57997 +/- 4.4
a   2.22892168 +/- 0.0912           Node   145.05416 +/- 1.7
e   0.3944671 +/- 0.0224            Incl.    6.40454 +/- 0.22
P   3.33                   H 22.7   G  0.15   U 10.1  
q 1.34968531 +/- 0.0072    Q 3.10815805 +/- 0.17
From 9 observations 2018 Oct. 10-13; mean residual 0".19
Residuals in arcseconds: 
181010 F52  .11-  .14-    181010 F52  .01-  .03+    181012 H21  .16+  .15-    
181010 F52  .18+  .09+    181012 H21  .04-  .23+    181013 L01  .45-  .19-    
181010 F52  .07-  .01+    181012 H21  .08-  .07-    181013 L01  .43+  .18+    

Ephemerides (geocentric):
Date (UTC) HH   RA              Dec         delta   r     elong  mag " sig PA
---- -- -- --  -------------   -----------  ------ ------ -----  --- ---- ---
2018 10 13 14  02 35 43.509   -05 21 18.73  .38920 1.3618 155.7 22.2  .44 122
2018 10 13 15  02 35 44.025   -05 21 38.68  .38922 1.3619 155.7 22.2  .45 119
2018 10 13 16  02 35 44.537   -05 21 58.59  .38925 1.3619 155.7 22.2  .46 116
2018 10 13 17  02 35 45.045   -05 22 18.46  .38928 1.3620 155.7 22.2  .47 113
2018 10 13 18  02 35 45.549   -05 22 38.29  .38930 1.3620 155.7 22.2  .48 111
2018 10 13 19  02 35 46.049   -05 22 58.08  .38933 1.3621 155.8 22.2  .50 108
2018 10 13 20  02 35 46.545   -05 23 17.83  .38935 1.3621 155.8 22.2  .51 106
2018 10 13 21  02 35 47.038   -05 23 37.54  .38938 1.3622 155.8 22.2  .53 103
2018 10 13 22  02 35 47.527   -05 23 57.21  .38941 1.3622 155.8 22.2  .55 101
2018 10 13 23  02 35 48.012   -05 24 16.84  .38943 1.3623 155.8 22.2  .57  99
2018 10 14 00  02 35 48.493   -05 24 36.42  .38946 1.3623 155.9 22.2  .59  97
2018 10 14 01  02 35 48.970   -05 24 55.97  .38949 1.3624 155.9 22.2  .61  95
2018 10 14 02  02 35 49.444   -05 25 15.48  .38951 1.3624 155.9 22.2  .64  93
2018 10 14 03  02 35 49.913   -05 25 34.94  .38954 1.3625 155.9 22.2  .66  92
2018 10 14 04  02 35 50.380   -05 25 54.37  .38957 1.3625 155.9 22.2  .69  90
2018 10 14 05  02 35 50.842   -05 26 13.75  .38960 1.3626 155.9 22.2  .71  89
2018 10 14 06  02 35 51.300   -05 26 33.09  .38963 1.3627 156.0 22.2  .74  87
2018 10 14 07  02 35 51.755   -05 26 52.39  .38965 1.3627 156.0 22.2  .77  86
2018 10 14 08  02 35 52.206   -05 27 11.65  .38968 1.3628 156.0 22.2  .80  85
2018 10 14 09  02 35 52.653   -05 27 30.87  .38971 1.3628 156.0 22.2  .82  83
2018 10 14 10  02 35 53.097   -05 27 50.04  .38974 1.3629 156.0 22.2  .85  82
2018 10 14 11  02 35 53.537   -05 28 09.18  .38977 1.3629 156.1 22.2  .89  81
2018 10 14 12  02 35 53.973   -05 28 28.27  .38980 1.3630 156.1 22.2  .92  80
2018 10 14 13  02 35 54.405   -05 28 47.32  .38983 1.3630 156.1 22.2  .95  79
2018 10 14 14  02 35 54.834   -05 29 06.33  .38986 1.3631 156.1 22.2  .98  78
2018 10 14 15  02 35 55.259   -05 29 25.30  .38989 1.3631 156.1 22.2  1.0  78
2018 10 14 16  02 35 55.680   -05 29 44.23  .38992 1.3632 156.2 22.2  1.1  77
2018 10 14 17  02 35 56.097   -05 30 03.11  .38995 1.3632 156.2 22.2  1.1  76
2018 10 14 18  02 35 56.511   -05 30 21.95  .38998 1.3633 156.2 22.2  1.1  75
2018 10 14 19  02 35 56.922   -05 30 40.75  .39001 1.3633 156.2 22.2  1.2  75
2018 10 14 20  02 35 57.328   -05 30 59.51  .39004 1.3634 156.2 22.2  1.2  74
2018 10 14 21  02 35 57.731   -05 31 18.23  .39007 1.3635 156.2 22.2  1.2  73
2018 10 14 22  02 35 58.130   -05 31 36.90  .39011 1.3635 156.3 22.2  1.3  73
2018 10 14 23  02 35 58.526   -05 31 55.53  .39014 1.3636 156.3 22.2  1.3  72
2018 10 15 00  02 35 58.918   -05 32 14.12  .39017 1.3636 156.3 22.2  1.3  72
2018 10 15 01  02 35 59.306   -05 32 32.67  .39020 1.3637 156.3 22.2  1.4  71
2018 10 15 02  02 35 59.691   -05 32 51.17  .39023 1.3637 156.3 22.2  1.4  71
2018 10 15 03  02 36 00.072   -05 33 09.63  .39027 1.3638 156.4 22.2  1.5  71
2018 10 15 04  02 36 00.450   -05 33 28.05  .39030 1.3638 156.4 22.2  1.5  70
2018 10 15 05  02 36 00.824   -05 33 46.42  .39033 1.3639 156.4 22.2  1.6  70
2018 10 15 06  02 36 01.194   -05 34 04.75  .39037 1.3640 156.4 22.2  1.6  69
2018 10 15 07  02 36 01.561   -05 34 23.04  .39040 1.3640 156.4 22.2  1.6  69
2018 10 15 08  02 36 01.924   -05 34 41.29  .39043 1.3641 156.4 22.2  1.7  69
2018 10 15 09  02 36 02.284   -05 34 59.49  .39047 1.3641 156.5 22.2  1.7  68
2018 10 15 10  02 36 02.640   -05 35 17.65  .39050 1.3642 156.5 22.2  1.8  68
2018 10 15 11  02 36 02.992   -05 35 35.77  .39054 1.3642 156.5 22.2  1.8  68
2018 10 15 12  02 36 03.341   -05 35 53.84  .39057 1.3643 156.5 22.2  1.9  68
2018 10 15 13  02 36 03.687   -05 36 11.87  .39060 1.3643 156.5 22.2  1.9  67